| time (UTC) | temp F | wind direction | speed MPH | gust MPH | rain 1hr in | rain 24hr in | rain mn in | humidity % | barometer mb |
| 20260904134413 | 52 | 260 | 0.0 | 0.0 | 0.00 | 0.00 | 0.00 | 99 | 1013.3 |
| 20260904133908 | 52 | 259 | 0.0 | 0.0 | 0.00 | 0.00 | 0.00 | 99 | 1013.2 |
| 20260904133403 | 52 | 257 | 0.0 | 0.0 | 0.00 | 0.00 | 0.00 | 99 | 1013.2 |
| 20260904132858 | 52 | 257 | 0.0 | 0.0 | 0.00 | 0.00 | 0.00 | 99 | 1013.1 |
| 20260904132354 | 53 | 257 | 0.0 | 0.0 | 0.00 | 0.00 | 0.00 | 99 | 1013.0 |
| 20260904131853 | 53 | 273 | 0.0 | 0.0 | 0.00 | 0.00 | 0.00 | 99 | 1013.1 |
| 20260904131349 | 53 | 274 | 0.0 | 0.0 | 0.00 | 0.00 | 0.00 | 99 | 1013.1 |
| 20260904130849 | 53 | 271 | 0.0 | 0.0 | 0.00 | 0.00 | 0.00 | 99 | 1012.9 |
| 20260904130348 | 54 | 268 | 0.0 | 0.0 | 0.00 | 0.00 | 0.00 | 99 | 1013.0 |
| 20260904125843 | 54 | 265 | 0.0 | 0.0 | 0.00 | 0.00 | 0.00 | 99 | 1012.9 |
| 20260904125339 | 54 | 261 | 0.0 | 0.0 | 0.00 | 0.00 | 0.00 | 99 | 1012.9 |
| 20260904124838 | 55 | 256 | 0.0 | 0.0 | 0.00 | 0.00 | 0.00 | 99 | 1012.6 |
| 20260904124335 | 55 | 256 | 0.0 | 0.0 | 0.00 | 0.00 | 0.00 | 99 | 1012.8 |
| 20260904123830 | 55 | 256 | 0.0 | 0.0 | 0.00 | 0.00 | 0.00 | 99 | 1012.6 |
| 20260904123325 | 55 | 256 | 0.0 | 0.0 | 0.00 | 0.00 | 0.00 | 99 | 1012.8 |
| 20260904122820 | 55 | 256 | 0.0 | 0.0 | 0.00 | 0.00 | 0.00 | 99 | 1012.6 |
| 20260904122315 | 55 | 256 | 0.0 | 0.0 | 0.00 | 0.00 | 0.00 | 99 | 1012.5 |
| 20260904121810 | 55 | 256 | 0.0 | 0.0 | 0.00 | 0.00 | 0.00 | 99 | 1012.7 |
| 20260904121306 | 55 | 256 | 0.0 | 0.0 | 0.00 | 0.00 | 0.00 | 99 | 1012.7 |
| 20260904120802 | 55 | 256 | 0.0 | 0.0 | 0.00 | 0.00 | 0.00 | 99 | 1012.6 |
| 20260904120257 | 55 | 256 | 0.0 | 0.0 | 0.00 | 0.00 | 0.00 | 99 | 1012.6 |
| 20260904115752 | 55 | 256 | 0.0 | 0.0 | 0.00 | 0.00 | 0.00 | 99 | 1012.7 |
| 20260904115247 | 55 | 256 | 0.0 | 0.0 | 0.00 | 0.00 | 0.00 | 99 | 1012.7 |
| 20260904114737 | 55 | 256 | 0.0 | 0.0 | 0.00 | 0.00 | 0.00 | 99 | 1012.5 |
| 20260904114236 | 55 | 257 | 0.0 | 0.0 | 0.00 | 0.00 | 0.00 | 99 | 1012.6 |
| 20260904113731 | 55 | 256 | 0.0 | 0.0 | 0.00 | 0.00 | 0.00 | 99 | 1012.7 |
| 20260904113230 | 56 | 256 | 0.0 | 0.0 | 0.00 | 0.00 | 0.00 | 99 | 1012.7 |
| 20260904112726 | 55 | 256 | 0.0 | 0.0 | 0.00 | 0.00 | 0.00 | 99 | 1012.7 |
| 20260904112221 | 55 | 256 | 0.0 | 0.0 | 0.00 | 0.00 | 0.00 | 99 | 1012.6 |
| 20260904111717 | 55 | 256 | 0.0 | 0.0 | 0.00 | 0.00 | 0.00 | 99 | 1012.6 |
| 20260904111213 | 55 | 256 | 0.0 | 0.0 | 0.00 | 0.00 | 0.00 | 99 | 1012.6 |
| 20260904110708 | 55 | 257 | 0.0 | 0.0 | 0.00 | 0.00 | 0.00 | 99 | 1012.6 |
| 20260904110207 | 55 | 257 | 0.0 | 0.0 | 0.00 | 0.00 | 0.00 | 99 | 1012.5 |
| 20260904105703 | 55 | 257 | 0.0 | 0.0 | 0.00 | 0.00 | 0.00 | 99 | 1012.4 |
| 20260904105157 | 55 | 257 | 0.0 | 0.0 | 0.00 | 0.00 | 0.00 | 99 | 1012.5 |
| 20260904104653 | 55 | 257 | 0.0 | 0.0 | 0.00 | 0.00 | 0.00 | 99 | 1012.5 |
| 20260904104148 | 55 | 257 | 0.0 | 0.0 | 0.00 | 0.00 | 0.00 | 99 | 1012.4 |
| 20260904103644 | 55 | 257 | 0.0 | 0.0 | 0.00 | 0.00 | 0.00 | 99 | 1012.5 |
| 20260904103139 | 55 | 257 | 0.0 | 0.0 | 0.00 | 0.00 | 0.00 | 99 | 1012.4 |
| 20260904102635 | 56 | 257 | 0.0 | 0.0 | 0.00 | 0.00 | 0.00 | 99 | 1012.5 |
| 20260904102129 | 56 | 257 | 0.0 | 0.0 | 0.00 | 0.00 | 0.00 | 99 | 1012.4 |
| 20260904101626 | 56 | 257 | 0.0 | 0.0 | 0.00 | 0.00 | 0.00 | 99 | 1012.5 |
| 20260904101122 | 56 | 257 | 0.0 | 0.0 | 0.00 | 0.00 | 0.00 | 99 | 1012.6 |
| 20260904100618 | 56 | 257 | 0.0 | 0.0 | 0.00 | 0.00 | 0.00 | 99 | 1012.4 |
| 20260904100112 | 56 | 257 | 0.0 | 0.0 | 0.00 | 0.00 | 0.00 | 99 | 1012.5 |
| 20260904095607 | 56 | 257 | 0.0 | 0.0 | 0.00 | 0.00 | 0.00 | 99 | 1012.4 |
| 20260904095102 | 56 | 257 | 0.0 | 0.0 | 0.00 | 0.00 | 0.00 | 99 | 1012.4 |
| 20260904094602 | 56 | 257 | 0.0 | 0.0 | 0.00 | 0.00 | 0.00 | 99 | 1012.4 |
| 20260904094057 | 56 | 257 | 0.0 | 0.0 | 0.00 | 0.00 | 0.00 | 99 | 1012.3 |
| 20260904093554 | 56 | 262 | 0.0 | 0.0 | 0.00 | 0.00 | 0.00 | 99 | 1012.3 |
| 20260904093049 | 57 | 261 | 0.0 | 0.0 | 0.00 | 0.00 | 0.00 | 99 | 1012.3 |
| 20260904092544 | 57 | 261 | 0.0 | 0.0 | 0.00 | 0.00 | 0.00 | 99 | 1012.3 |
| 20260904092041 | 57 | 262 | 0.0 | 0.0 | 0.00 | 0.00 | 0.00 | 99 | 1012.3 |
| 20260904091536 | 57 | 261 | 0.0 | 0.0 | 0.00 | 0.00 | 0.00 | 99 | 1012.5 |
| 20260904091036 | 57 | 261 | 0.0 | 0.0 | 0.00 | 0.00 | 0.00 | 99 | 1012.4 |
| 20260904090531 | 57 | 265 | 0.0 | 0.0 | 0.00 | 0.00 | 0.00 | 99 | 1012.4 |
| 20260904090027 | 57 | 266 | 0.0 | 0.0 | 0.00 | 0.00 | 0.00 | 99 | 1012.5 |
| 20260904085523 | 57 | 266 | 0.0 | 0.0 | 0.00 | 0.00 | 0.00 | 99 | 1012.4 |
| 20260904085022 | 57 | 266 | 0.0 | 0.0 | 0.00 | 0.00 | 0.00 | 99 | 1012.5 |
| 20260904084518 | 57 | 266 | 0.0 | 0.0 | 0.00 | 0.00 | 0.00 | 99 | 1012.4 |
| 20260904084014 | 57 | 266 | 0.0 | 0.0 | 0.00 | 0.00 | 0.00 | 99 | 1012.5 |
| 20260904083510 | 57 | 265 | 0.0 | 0.0 | 0.00 | 0.00 | 0.00 | 99 | 1012.4 |
| 20260904083006 | 57 | 256 | 0.0 | 0.0 | 0.00 | 0.00 | 0.00 | 99 | 1012.5 |
| 20260904082501 | 57 | 256 | 0.0 | 0.0 | 0.00 | 0.00 | 0.00 | 99 | 1012.5 |
| 20260904082000 | 57 | 274 | 0.0 | 0.0 | 0.00 | 0.00 | 0.00 | 99 | 1012.6 |
| 20260904081456 | 57 | 253 | 0.0 | 0.0 | 0.00 | 0.00 | 0.00 | 99 | 1012.4 |
| 20260904080952 | 57 | 271 | 0.0 | 0.0 | 0.00 | 0.00 | 0.00 | 99 | 1012.5 |
| 20260904080447 | 57 | 271 | 0.0 | 0.0 | 0.00 | 0.00 | 0.00 | 99 | 1012.5 |
| 20260904075943 | 57 | 271 | 0.0 | 0.0 | 0.00 | 0.00 | 0.00 | 99 | 1012.5 |
| 20260904075439 | 57 | 271 | 0.0 | 0.0 | 0.00 | 0.00 | 0.00 | 99 | 1012.5 |
| 20260904074938 | 57 | 271 | 0.0 | 0.0 | 0.00 | 0.00 | 0.00 | 99 | 1012.3 |
| 20260904074433 | 57 | 271 | 0.0 | 0.0 | 0.00 | 0.00 | 0.00 | 99 | 1012.3 |
| 20260904073928 | 57 | 271 | 0.0 | 0.0 | 0.00 | 0.00 | 0.00 | 99 | 1012.2 |
| 20260904073424 | 57 | 271 | 0.0 | 0.0 | 0.00 | 0.00 | 0.00 | 99 | 1012.3 |
| 20260904072919 | 57 | 271 | 0.0 | 0.0 | 0.00 | 0.00 | 0.00 | 99 | 1012.2 |
| 20260904072415 | 57 | 271 | 0.0 | 0.0 | 0.00 | 0.00 | 0.00 | 99 | 1012.3 |
| 20260904071910 | 57 | 271 | 0.0 | 0.0 | 0.00 | 0.00 | 0.00 | 99 | 1012.2 |
| 20260904071405 | 57 | 271 | 0.0 | 0.0 | 0.00 | 0.00 | 0.00 | 99 | 1012.3 |
| 20260904070859 | 58 | 270 | 0.0 | 0.0 | 0.00 | 0.00 | 0.00 | 99 | 1012.3 |
| 20260904070358 | 58 | 261 | 0.0 | 0.0 | 0.00 | 0.00 | 0.00 | 99 | 1012.3 |
| 20260904065853 | 58 | 261 | 0.0 | 0.0 | 0.00 | 0.01 | 0.01 | 99 | 1012.3 |
| 20260904065349 | 58 | 261 | 0.0 | 0.0 | 0.00 | 0.01 | 0.01 | 99 | 1012.3 |
| 20260904064844 | 58 | 261 | 0.0 | 0.0 | 0.00 | 0.01 | 0.01 | 99 | 1012.4 |
| 20260904064340 | 58 | 261 | 1.0 | 3.0 | 0.00 | 0.01 | 0.01 | 99 | 1012.3 |
| 20260904063836 | 58 | 260 | 0.0 | 1.0 | 0.00 | 0.01 | 0.01 | 99 | 1012.3 |
| 20260904063331 | 58 | 248 | 2.0 | 4.0 | 0.00 | 0.01 | 0.01 | 99 | 1012.3 |
| 20260904062826 | 59 | 257 | 0.0 | 3.0 | 0.00 | 0.01 | 0.01 | 99 | 1012.3 |
| 20260904062323 | 59 | 256 | 0.0 | 0.0 | 0.00 | 0.01 | 0.01 | 99 | 1012.4 |
| 20260904061812 | 59 | 256 | 0.0 | 0.0 | 0.00 | 0.01 | 0.01 | 99 | 1012.4 |
| 20260904061308 | 58 | 256 | 0.0 | 0.0 | 0.00 | 0.01 | 0.01 | 99 | 1012.3 |
| 20260904060805 | 58 | 256 | 0.0 | 0.0 | 0.00 | 0.01 | 0.01 | 99 | 1012.4 |
| 20260904060301 | 58 | 256 | 0.0 | 0.0 | 0.00 | 0.01 | 0.01 | 99 | 1012.3 |
| 20260904055801 | 59 | 256 | 0.0 | 0.0 | 0.00 | 0.01 | 0.01 | 99 | 1012.4 |
| 20260904055301 | 59 | 256 | 0.0 | 0.0 | 0.00 | 0.01 | 0.01 | 99 | 1012.4 |
| 20260904054756 | 59 | 256 | 0.0 | 0.0 | 0.00 | 0.01 | 0.01 | 99 | 1012.3 |
| 20260904054252 | 59 | 256 | 0.0 | 0.0 | 0.00 | 0.01 | 0.01 | 99 | 1012.4 |
| 20260904053748 | 59 | 256 | 0.0 | 3.0 | 0.00 | 0.01 | 0.01 | 99 | 1012.4 |
| 20260904053242 | 59 | 259 | 0.0 | 0.0 | 0.00 | 0.01 | 0.01 | 99 | 1012.4 |
| 20260904052738 | 59 | 252 | 0.0 | 0.0 | 0.00 | 0.01 | 0.01 | 99 | 1012.6 |
| 20260904052234 | 59 | 252 | 0.0 | 0.0 | 0.00 | 0.01 | 0.01 | 99 | 1012.5 |
| 20260904051730 | 59 | 252 | 0.0 | 0.0 | 0.00 | 0.01 | 0.01 | 99 | 1012.5 |
| 20260904051225 | 59 | 251 | 0.0 | 0.0 | 0.00 | 0.01 | 0.01 | 99 | 1012.4 |
| 20260904050720 | 59 | 251 | 0.0 | 0.0 | 0.00 | 0.01 | 0.01 | 99 | 1012.5 |
| 20260904050217 | 59 | 252 | 0.0 | 0.0 | 0.00 | 0.01 | 0.01 | 99 | 1012.6 |
| 20260904045716 | 59 | 252 | 0.0 | 0.0 | 0.00 | 0.01 | 0.01 | 99 | 1012.6 |
| 20260904045211 | 59 | 252 | 0.0 | 0.0 | 0.00 | 0.01 | 0.01 | 99 | 1012.6 |
| 20260904044706 | 59 | 252 | 0.0 | 0.0 | 0.00 | 0.01 | 0.01 | 99 | 1012.6 |
| 20260904044203 | 59 | 252 | 0.0 | 0.0 | 0.00 | 0.01 | 0.01 | 99 | 1012.6 |
| 20260904043659 | 59 | 252 | 0.0 | 0.0 | 0.00 | 0.01 | 0.01 | 99 | 1012.5 |
| 20260904043155 | 59 | 252 | 0.0 | 0.0 | 0.00 | 0.01 | 0.01 | 99 | 1012.7 |
| 20260904042650 | 59 | 252 | 0.0 | 0.0 | 0.00 | 0.01 | 0.01 | 99 | 1012.5 |
| 20260904042146 | 59 | 252 | 0.0 | 0.0 | 0.00 | 0.01 | 0.01 | 99 | 1012.5 |
| 20260904041641 | 59 | 251 | 1.0 | 1.0 | 0.00 | 0.01 | 0.01 | 99 | 1012.6 |
| 20260904041137 | 59 | 252 | 0.0 | 0.0 | 0.00 | 0.01 | 0.01 | 99 | 1012.4 |
| 20260904040633 | 59 | 252 | 0.0 | 3.0 | 0.00 | 0.01 | 0.01 | 99 | 1012.4 |
| 20260904040129 | 59 | 247 | 1.0 | 3.0 | 0.00 | 0.01 | 0.01 | 99 | 1012.5 |
| 20260904035624 | 59 | 256 | 0.0 | 0.0 | 0.00 | 0.01 | 0.01 | 99 | 1012.4 |
| 20260904035124 | 59 | 256 | 0.0 | 0.0 | 0.00 | 0.01 | 0.01 | 99 | 1012.5 |
| 20260904034618 | 59 | 266 | 0.0 | 0.0 | 0.00 | 0.01 | 0.01 | 99 | 1012.5 |
| 20260904034114 | 59 | 261 | 0.0 | 0.0 | 0.00 | 0.01 | 0.01 | 99 | 1012.4 |
| 20260904033609 | 59 | 272 | 0.0 | 0.0 | 0.00 | 0.01 | 0.01 | 99 | 1012.2 |
| 20260904033107 | 59 | 266 | 0.0 | 0.0 | 0.00 | 0.01 | 0.01 | 99 | 1012.4 |
| 20260904032608 | 59 | 266 | 0.0 | 0.0 | 0.00 | 0.01 | 0.01 | 99 | 1012.4 |
| 20260904032106 | 59 | 266 | 0.0 | 0.0 | 0.00 | 0.01 | 0.01 | 99 | 1012.3 |
| 20260904031606 | 59 | 266 | 0.0 | 0.0 | 0.00 | 0.01 | 0.01 | 99 | 1012.3 |
| 20260904031102 | 59 | 265 | 0.0 | 0.0 | 0.00 | 0.01 | 0.01 | 99 | 1012.1 |
| 20260904030558 | 59 | 264 | 0.0 | 0.0 | 0.00 | 0.01 | 0.01 | 99 | 1012.2 |
| 20260904030053 | 59 | 266 | 0.0 | 0.0 | 0.00 | 0.01 | 0.01 | 99 | 1012.1 |
| 20260904025548 | 59 | 271 | 0.0 | 0.0 | 0.00 | 0.01 | 0.01 | 99 | 1012.2 |
| 20260904025043 | 59 | 271 | 0.0 | 0.0 | 0.00 | 0.01 | 0.01 | 99 | 1012.1 |
| 20260904024539 | 59 | 271 | 0.0 | 0.0 | 0.00 | 0.01 | 0.01 | 99 | 1012.1 |
| 20260904024035 | 59 | 271 | 0.0 | 0.0 | 0.00 | 0.01 | 0.01 | 99 | 1012.1 |
| 20260904023531 | 59 | 29 | 0.0 | 0.0 | 0.00 | 0.01 | 0.01 | 99 | 1012.0 |
| 20260904023026 | 58 | 29 | 0.0 | 0.0 | 0.00 | 0.01 | 0.01 | 99 | 1012.1 |
| 20260904022520 | 58 | 29 | 0.0 | 0.0 | 0.00 | 0.01 | 0.01 | 99 | 1012.1 |
| 20260904022018 | 58 | 29 | 0.0 | 0.0 | 0.00 | 0.01 | 0.01 | 99 | 1012.2 |
| 20260904021513 | 59 | 29 | 0.0 | 0.0 | 0.00 | 0.01 | 0.01 | 99 | 1012.2 |
| 20260904021008 | 59 | 29 | 0.0 | 0.0 | 0.00 | 0.01 | 0.01 | 99 | 1012.2 |
| 20260904020503 | 59 | 29 | 0.0 | 0.0 | 0.00 | 0.01 | 0.01 | 99 | 1012.4 |
| 20260904020001 | 59 | 29 | 0.0 | 0.0 | 0.00 | 0.01 | 0.01 | 99 | 1012.3 |
| 20260904015457 | 59 | 29 | 0.0 | 0.0 | 0.00 | 0.01 | 0.01 | 99 | 1012.4 |
| 20260904014955 | 59 | 29 | 0.0 | 0.0 | 0.00 | 0.01 | 0.01 | 99 | 1012.4 |
| 20260904014450 | 58 | 29 | 0.0 | 0.0 | 0.00 | 0.01 | 0.01 | 99 | 1012.4 |
| 20260904013946 | 58 | 29 | 0.0 | 0.0 | 0.00 | 0.01 | 0.01 | 99 | 1012.4 |
| 20260904013442 | 58 | 31 | 0.0 | 0.0 | 0.00 | 0.01 | 0.01 | 99 | 1012.5 |
| 20260904012938 | 58 | 322 | 0.0 | 0.0 | 0.00 | 0.01 | 0.01 | 99 | 1012.6 |
| 20260904012437 | 58 | 326 | 0.0 | 0.0 | 0.00 | 0.01 | 0.01 | 99 | 1012.6 |
| 20260904011932 | 58 | 258 | 0.0 | 0.0 | 0.00 | 0.01 | 0.01 | 99 | 1012.7 |
| 20260904011427 | 59 | 258 | 0.0 | 0.0 | 0.00 | 0.01 | 0.01 | 99 | 1012.7 |
| 20260904010922 | 58 | 258 | 0.0 | 0.0 | 0.00 | 0.01 | 0.01 | 99 | 1012.7 |
| 20260904010419 | 59 | 258 | 0.0 | 0.0 | 0.00 | 0.01 | 0.01 | 99 | 1012.8 |
| 20260904005914 | 59 | 257 | 0.0 | 0.0 | 0.00 | 0.01 | 0.01 | 99 | 1012.8 |
| 20260904005410 | 60 | 257 | 0.0 | 0.0 | 0.00 | 0.01 | 0.01 | 99 | 1012.8 |
| 20260904004909 | 59 | 257 | 0.0 | 0.0 | 0.00 | 0.01 | 0.01 | 99 | 1012.7 |
| 20260904004407 | 59 | 257 | 0.0 | 0.0 | 0.00 | 0.01 | 0.01 | 99 | 1012.8 |
| 20260904003906 | 59 | 257 | 0.0 | 0.0 | 0.00 | 0.01 | 0.01 | 99 | 1012.9 |
| 20260904003402 | 60 | 257 | 0.0 | 0.0 | 0.00 | 0.01 | 0.01 | 99 | 1012.9 |
| 20260904002857 | 60 | 257 | 0.0 | 0.0 | 0.00 | 0.01 | 0.01 | 99 | 1012.8 |
| 20260904002354 | 59 | 257 | 0.0 | 0.0 | 0.00 | 0.01 | 0.01 | 99 | 1012.9 |
| 20260904001852 | 60 | 257 | 0.0 | 0.0 | 0.00 | 0.01 | 0.01 | 99 | 1013.1 |
| 20260904001348 | 59 | 265 | 0.0 | 0.0 | 0.00 | 0.01 | 0.01 | 99 | 1013.2 |
| 20260904000843 | 59 | 265 | 0.0 | 0.0 | 0.00 | 0.01 | 0.01 | 99 | 1013.2 |
| 20260904000342 | 59 | 255 | 0.0 | 0.0 | 0.00 | 0.01 | 0.01 | 99 | 1013.2 |
| 20260903235842 | 59 | 254 | 0.0 | 1.0 | 0.00 | 0.01 | 0.01 | 99 | 1013.2 |
| 20260903235339 | 59 | 251 | 4.0 | 5.0 | 0.00 | 0.01 | 0.01 | 99 | 1013.3 |
| 20260903234837 | 60 | 257 | 1.0 | 4.0 | 0.00 | 0.01 | 0.01 | 99 | 1013.3 |
| 20260903234334 | 60 | 253 | 0.0 | 1.0 | 0.00 | 0.01 | 0.01 | 99 | 1013.3 |
| 20260903233830 | 60 | 255 | 6.0 | 8.0 | 0.00 | 0.01 | 0.01 | 99 | 1013.4 |
| 20260903233326 | 60 | 259 | 4.0 | 7.0 | 0.00 | 0.01 | 0.01 | 99 | 1013.3 |
| 20260903232825 | 60 | 249 | 0.0 | 0.0 | 0.00 | 0.01 | 0.01 | 99 | 1013.3 |
| 20260903232321 | 60 | 262 | 0.0 | 0.0 | 0.00 | 0.01 | 0.01 | 99 | 1013.4 |
| 20260903231820 | 60 | 262 | 0.0 | 0.0 | 0.00 | 0.01 | 0.01 | 98 | 1013.5 |
| 20260903231315 | 61 | 262 | 0.0 | 0.0 | 0.00 | 0.01 | 0.01 | 98 | 1013.4 |
| 20260903230811 | 61 | 262 | 0.0 | 0.0 | 0.00 | 0.01 | 0.01 | 98 | 1013.6 |
| 20260903230306 | 61 | 262 | 0.0 | 0.0 | 0.00 | 0.01 | 0.01 | 98 | 1013.6 |
| 20260903225802 | 61 | 262 | 0.0 | 0.0 | 0.00 | 0.01 | 0.01 | 98 | 1013.6 |
| 20260903225258 | 61 | 262 | 0.0 | 0.0 | 0.00 | 0.01 | 0.01 | 98 | 1013.5 |
| 20260903224754 | 61 | 262 | 0.0 | 0.0 | 0.00 | 0.01 | 0.01 | 97 | 1013.6 |
| 20260903224250 | 62 | 273 | 2.0 | 3.0 | 0.00 | 0.01 | 0.01 | 97 | 1013.7 |
| 20260903223745 | 61 | 259 | 0.0 | 0.0 | 0.00 | 0.01 | 0.01 | 97 | 1013.7 |
| 20260903223243 | 61 | 256 | 0.0 | 0.0 | 0.00 | 0.01 | 0.01 | 97 | 1013.7 |
| 20260903222739 | 61 | 239 | 4.0 | 4.0 | 0.00 | 0.01 | 0.01 | 97 | 1013.8 |
| 20260903222238 | 61 | 261 | 3.0 | 8.0 | 0.00 | 0.01 | 0.01 | 96 | 1013.9 |
| 20260903221733 | 62 | 264 | 2.0 | 8.0 | 0.07 | 0.01 | 0.01 | 95 | 1013.8 |
| 20260903221231 | 62 | 252 | 2.0 | 4.0 | 0.07 | 0.01 | 0.01 | 94 | 1013.8 |
| 20260903220730 | 63 | 315 | 3.0 | 7.0 | 0.00 | 0.00 | 0.00 | 91 | 1013.8 |
| 20260903220225 | 65 | 273 | 6.0 | 8.0 | 0.00 | 0.00 | 0.00 | 86 | 1013.7 |
| 20260903215718 | 65 | 265 | 2.0 | 5.0 | 0.00 | 0.00 | 0.00 | 84 | 1013.6 |
| 20260903215214 | 66 | 262 | 7.0 | 8.0 | 0.00 | 0.00 | 0.00 | 81 | 1013.5 |
| 20260903214712 | 66 | 256 | 1.0 | 8.0 | 0.00 | 0.00 | 0.00 | 83 | 1013.5 |
| 20260903214209 | 66 | 259 | 1.0 | 7.0 | 0.00 | 0.00 | 0.00 | 83 | 1013.5 |
| 20260903213703 | 66 | 260 | 8.0 | 12.0 | 0.00 | 0.00 | 0.00 | 83 | 1013.6 |
| 20260903213158 | 66 | 243 | 3.0 | 7.0 | 0.00 | 0.00 | 0.00 | 85 | 1013.6 |
| 20260903212654 | 66 | 252 | 0.0 | 3.0 | 0.00 | 0.00 | 0.00 | 87 | 1013.6 |
| 20260903212150 | 66 | 280 | 1.0 | 5.0 | 0.00 | 0.00 | 0.00 | 87 | 1013.6 |
| 20260903211649 | 65 | 261 | 3.0 | 4.0 | 0.00 | 0.00 | 0.00 | 87 | 1013.5 |
| 20260903211146 | 65 | 284 | 3.0 | 11.0 | 0.00 | 0.00 | 0.00 | 87 | 1013.6 |
| 20260903210641 | 66 | 225 | 4.0 | 5.0 | 0.00 | 0.00 | 0.00 | 88 | 1013.6 |
| 20260903210137 | 66 | 281 | 2.0 | 3.0 | 0.00 | 0.00 | 0.00 | 91 | 1013.6 |
| 20260903205631 | 66 | 255 | 7.0 | 10.0 | 0.00 | 0.00 | 0.00 | 86 | 1013.6 |
| 20260903205130 | 66 | 259 | 0.0 | 4.0 | 0.00 | 0.00 | 0.00 | 91 | 1013.8 |
| 20260903204626 | 66 | 280 | 2.0 | 4.0 | 0.00 | 0.00 | 0.00 | 91 | 1013.7 |
| 20260903204122 | 66 | 249 | 4.0 | 8.0 | 0.00 | 0.00 | 0.00 | 94 | 1013.7 |
| 20260903203617 | 65 | 266 | 1.0 | 4.0 | 0.00 | 0.00 | 0.00 | 98 | 1013.8 |
| 20260903203112 | 64 | 257 | 0.0 | 5.0 | 0.00 | 0.00 | 0.00 | 99 | 1013.7 |
| 20260903202607 | 64 | 267 | 2.0 | 10.0 | 0.00 | 0.00 | 0.00 | 99 | 1013.8 |
| 20260903202103 | 63 | 227 | 3.0 | 4.0 | 0.00 | 0.00 | 0.00 | 99 | 1013.8 |
| 20260903201557 | 63 | 252 | 2.0 | 7.0 | 0.00 | 0.00 | 0.00 | 99 | 1013.9 |
| 20260903201056 | 64 | 255 | 3.0 | 4.0 | 0.00 | 0.00 | 0.00 | 99 | 1014.0 |
| 20260903200551 | 64 | 241 | 5.0 | 11.0 | 0.00 | 0.00 | 0.00 | 99 | 1014.0 |
| 20260903200046 | 63 | 244 | 2.0 | 4.0 | 0.00 | 0.00 | 0.00 | 99 | 1014.3 |
| 20260903195542 | 62 | 245 | 4.0 | 5.0 | 0.00 | 0.00 | 0.00 | 99 | 1014.2 |
| 20260903195037 | 62 | 249 | 9.0 | 14.0 | 0.00 | 0.00 | 0.00 | 99 | 1014.3 |
| 20260903194527 | 63 | 251 | 1.0 | 4.0 | 0.00 | 0.00 | 0.00 | 99 | 1014.2 |
| 20260903194022 | 63 | 231 | 2.0 | 5.0 | 0.00 | 0.00 | 0.00 | 99 | 1014.4 |
| 20260903193518 | 62 | 238 | 7.0 | 11.0 | 0.00 | 0.00 | 0.00 | 99 | 1014.3 |
| 20260903193013 | 62 | 256 | 3.0 | 7.0 | 0.00 | 0.00 | 0.00 | 99 | 1014.4 |
| 20260903192510 | 62 | 274 | 5.0 | 5.0 | 0.00 | 0.00 | 0.00 | 99 | 1014.4 |
| 20260903192011 | 62 | 273 | 2.0 | 11.0 | 0.00 | 0.00 | 0.00 | 99 | 1014.5 |
| 20260903191507 | 62 | 252 | 7.0 | 10.0 | 0.00 | 0.00 | 0.00 | 99 | 1014.6 |
| 20260903191007 | 62 | 263 | 5.0 | 10.0 | 0.00 | 0.00 | 0.00 | 99 | 1014.6 |
| 20260903190501 | 62 | 244 | 2.0 | 4.0 | 0.00 | 0.00 | 0.00 | 99 | 1014.7 |
| 20260903190000 | 62 | 262 | 3.0 | 4.0 | 0.00 | 0.00 | 0.00 | 99 | 1014.5 |
| 20260903185456 | 62 | 266 | 3.0 | 5.0 | 0.00 | 0.00 | 0.00 | 99 | 1014.7 |
| 20260903184950 | 62 | 271 | 0.0 | 5.0 | 0.00 | 0.00 | 0.00 | 99 | 1014.7 |
| 20260903184447 | 62 | 251 | 1.0 | 4.0 | 0.00 | 0.00 | 0.00 | 99 | 1014.7 |
| 20260903183941 | 62 | 243 | 1.0 | 4.0 | 0.00 | 0.00 | 0.00 | 99 | 1014.7 |
| 20260903183436 | 61 | 209 | 1.0 | 5.0 | 0.00 | 0.00 | 0.00 | 99 | 1014.6 |
| 20260903182935 | 61 | 275 | 2.0 | 3.0 | 0.00 | 0.00 | 0.00 | 99 | 1014.8 |
| 20260903182434 | 61 | 224 | 3.0 | 4.0 | 0.00 | 0.00 | 0.00 | 99 | 1014.7 |
| 20260903181930 | 61 | 240 | 1.0 | 4.0 | 0.00 | 0.00 | 0.00 | 99 | 1014.8 |
| 20260903181424 | 61 | 273 | 3.0 | 7.0 | 0.00 | 0.00 | 0.00 | 99 | 1014.7 |
| 20260903180923 | 62 | 263 | 1.0 | 3.0 | 0.00 | 0.00 | 0.00 | 99 | 1014.7 |
| 20260903180419 | 61 | 227 | 1.0 | 4.0 | 0.00 | 0.00 | 0.00 | 99 | 1014.7 |
| 20260903175918 | 61 | 217 | 1.0 | 4.0 | 0.00 | 0.00 | 0.00 | 99 | 1014.6 |
| 20260903175413 | 62 | 262 | 0.0 | 1.0 | 0.00 | 0.00 | 0.00 | 99 | 1014.6 |
| 20260903174908 | 61 | 255 | 0.0 | 5.0 | 0.00 | 0.00 | 0.00 | 99 | 1014.5 |
| 20260903174403 | 61 | 230 | 4.0 | 5.0 | 0.00 | 0.00 | 0.00 | 99 | 1014.6 |
| 20260903173902 | 61 | 252 | 0.0 | 3.0 | 0.00 | 0.00 | 0.00 | 99 | 1014.6 |
| 20260903173357 | 61 | 269 | 4.0 | 5.0 | 0.00 | 0.00 | 0.00 | 99 | 1014.6 |
| 20260903172853 | 61 | 264 | 3.0 | 4.0 | 0.00 | 0.00 | 0.00 | 99 | 1014.6 |
| 20260903172348 | 61 | 235 | 3.0 | 4.0 | 0.00 | 0.00 | 0.00 | 99 | 1014.6 |
| 20260903171843 | 61 | 222 | 3.0 | 7.0 | 0.00 | 0.00 | 0.00 | 99 | 1014.6 |
| 20260903171338 | 61 | 219 | 1.0 | 3.0 | 0.00 | 0.00 | 0.00 | 99 | 1014.6 |
| 20260903170838 | 61 | 258 | 1.0 | 4.0 | 0.00 | 0.00 | 0.00 | 99 | 1014.6 |
| 20260903170333 | 61 | 255 | 0.0 | 5.0 | 0.00 | 0.00 | 0.00 | 99 | 1014.4 |
| 20260903165831 | 61 | 192 | 2.0 | 4.0 | 0.00 | 0.00 | 0.00 | 99 | 1014.5 |
| 20260903165331 | 61 | 231 | 2.0 | 4.0 | 0.00 | 0.00 | 0.00 | 99 | 1014.4 |
| 20260903164826 | 61 | 222 | 4.0 | 7.0 | 0.00 | 0.00 | 0.00 | 99 | 1014.6 |
| 20260903164321 | 61 | 244 | 2.0 | 4.0 | 0.00 | 0.00 | 0.00 | 99 | 1014.6 |
| 20260903163820 | 61 | 255 | 1.0 | 3.0 | 0.00 | 0.00 | 0.00 | 99 | 1014.5 |
| 20260903163318 | 61 | 224 | 4.0 | 5.0 | 0.00 | 0.00 | 0.00 | 99 | 1014.6 |
| 20260903162813 | 61 | 191 | 0.0 | 3.0 | 0.00 | 0.00 | 0.00 | 99 | 1014.6 |
| 20260903162309 | 61 | 278 | 1.0 | 4.0 | 0.00 | 0.00 | 0.00 | 99 | 1014.4 |
| 20260903161804 | 61 | 222 | 1.0 | 1.0 | 0.00 | 0.00 | 0.00 | 99 | 1014.6 |
| 20260903161300 | 61 | 222 | 0.0 | 3.0 | 0.00 | 0.00 | 0.00 | 99 | 1014.6 |
| 20260903160755 | 61 | 259 | 0.0 | 3.0 | 0.00 | 0.00 | 0.00 | 99 | 1014.7 |
| 20260903160254 | 61 | 241 | 1.0 | 3.0 | 0.00 | 0.00 | 0.00 | 99 | 1014.8 |
| 20260903155752 | 61 | 247 | 0.0 | 3.0 | 0.00 | 0.00 | 0.00 | 99 | 1014.6 |
| 20260903155248 | 61 | 284 | 0.0 | 5.0 | 0.00 | 0.00 | 0.00 | 98 | 1014.7 |
| 20260903154743 | 61 | 232 | 3.0 | 5.0 | 0.00 | 0.00 | 0.00 | 98 | 1014.6 |
| 20260903154239 | 61 | 247 | 2.0 | 4.0 | 0.00 | 0.00 | 0.00 | 98 | 1014.8 |
| 20260903153735 | 61 | 244 | 3.0 | 3.0 | 0.00 | 0.00 | 0.00 | 97 | 1014.9 |
| 20260903153231 | 61 | 267 | 1.0 | 5.0 | 0.00 | 0.00 | 0.00 | 97 | 1015.0 |
| 20260903152727 | 61 | 234 | 0.0 | 1.0 | 0.00 | 0.00 | 0.00 | 96 | 1014.9 |
| 20260903152223 | 61 | 259 | 1.0 | 5.0 | 0.00 | 0.00 | 0.00 | 96 | 1014.9 |
| 20260903151722 | 61 | 262 | 0.0 | 5.0 | 0.00 | 0.00 | 0.00 | 96 | 1015.0 |
| 20260903151218 | 61 | 267 | 0.0 | 5.0 | 0.00 | 0.00 | 0.00 | 96 | 1014.7 |
| 20260903150713 | 61 | 268 | 3.0 | 5.0 | 0.00 | 0.00 | 0.00 | 96 | 1014.7 |
| 20260903150208 | 61 | 259 | 2.0 | 8.0 | 0.00 | 0.00 | 0.00 | 96 | 1014.7 |
| 20260903145707 | 61 | 247 | 0.0 | 0.0 | 0.00 | 0.00 | 0.00 | 96 | 1014.8 |
| 20260903145203 | 61 | 219 | 0.0 | 0.0 | 0.00 | 0.00 | 0.00 | 96 | 1014.7 |
| 20260903144701 | 61 | 282 | 0.0 | 0.0 | 0.00 | 0.00 | 0.00 | 97 | 1014.8 |
| 20260903144157 | 61 | 257 | 0.0 | 0.0 | 0.00 | 0.00 | 0.00 | 97 | 1014.7 |
| 20260903143653 | 60 | 273 | 0.0 | 0.0 | 0.00 | 0.00 | 0.00 | 97 | 1014.7 |
| 20260903143149 | 60 | 246 | 0.0 | 0.0 | 0.00 | 0.00 | 0.00 | 97 | 1014.7 |
| 20260903142644 | 60 | 253 | 0.0 | 0.0 | 0.00 | 0.00 | 0.00 | 98 | 1014.6 |
| 20260903142141 | 60 | 251 | 0.0 | 0.0 | 0.00 | 0.00 | 0.00 | 98 | 1014.5 |
| 20260903141636 | 60 | 272 | 0.0 | 0.0 | 0.00 | 0.00 | 0.00 | 98 | 1014.6 |
| 20260903141131 | 60 | 262 | 0.0 | 0.0 | 0.00 | 0.00 | 0.00 | 98 | 1014.6 |
| 20260903140627 | 60 | 143 | 0.0 | 0.0 | 0.00 | 0.00 | 0.00 | 99 | 1014.5 |
| 20260903140122 | 60 | 253 | 0.0 | 0.0 | 0.00 | 0.00 | 0.00 | 99 | 1014.6 |
| 20260903135618 | 60 | 282 | 0.0 | 0.0 | 0.00 | 0.00 | 0.00 | 99 | 1014.5 |
| 20260903135113 | 60 | 250 | 0.0 | 0.0 | 0.00 | 0.00 | 0.00 | 99 | 1014.4 |